Zurück zum Katalog

SL-14 R/B

AktivLEO
NORAD 19196·ROCKET BODY·🇷🇺 Russia

Gestartet May 30, 1988 von Plesetsk Cosmodrome

Loading…

Nächste Überflüge (nächste 24 Stunden)

TLE

AktuellSource: Space-Track

Epoche: Sep 14, 2026, 15:42 UTC

1 19196U 88046B   26257.65445900  .00000003  00000-0  14665-3 0  9995
2 19196  73.6026 326.3635 0020109  51.3775 116.6304 12.41406113735425

Verfolge SL-14 R/B in Echtzeit mit AllMySat

Download on the App Store